Flag for Russia Weather past 2 weeks in Surgut, Russia

Now
54 °F

Clear.


Feels Like: 51 °F
Forecast: 45 / 61 °F
Wind: 8 mph from North

Location: Surgut Airport

Current Time: May 25, 2015 at 12:38:36 PM

Latest Report: May 25, 2015 at 12:00 PM


Visibility: 4 mi

Pressure: 30.04 "Hg

Humidity: 44%

Dew point: 32 °F

Location of SurgutLocation

Historic Weather in Surgut — Graph

°F

Surgut temperature yesterday

Maximum temperature yesterday: 55 °F (at 1:30 PM)
Minimum temperature yesterday: 41 °F (at 11:00 PM)
Average temperature yesterday: 49 °F

Past Weeks' High & Low Weather Summary

 TemperatureHumidityPressure
High75 °F (May 15, 12:00 PM)100% (May 20, 1:00 AM)30.21 "Hg (May 20, 1:00 AM)
Low30 °F (May 12, 3:30 AM)20% (May 13, 2:30 PM)29.39 "Hg (May 22, 12:30 AM)
Average54 °F60%29.83 "Hg
* Reported May 10 11:00 AM — May 25 11:30 AM, Surgut, Weather by CustomWeather, © 2015

Note: Actual official high and low records may vary slightly from our data, if they occured in-between our weather recording intervals... More about our weather records

Advertising

Surgut weather history for previous 24 hours

 ConditionsComfort  
Time TempWeatherWind HumidityBarometerVisibility
11:30 AM
Mon, May 25
52 °FClear.8 mph47%30.04 "Hg4 mi
11:00 AM54 °FClear.8 mph47%30.04 "Hg4 mi
10:30 AM52 °FClear.8 mph50%30.04 "Hg4 mi
10:00 AM52 °FClear.8 mph50%30.04 "Hg4 mi
9:30 AM52 °FClear.8 mph47%30.04 "Hg4 mi
8:30 AM50 °FClear.10 mph50%30.04 "Hg4 mi
8:00 AM50 °FClear.6 mph50%30.04 "Hg4 mi
7:30 AM50 °FClear.6 mph54%30.04 "Hg4 mi
7:00 AM50 °FClear.6 mph58%30.04 "Hg4 mi
6:30 AM48 °FClear.6 mph62%30.04 "Hg4 mi
6:00 AM46 °FClear.6 mph66%30.04 "Hg4 mi
5:30 AM45 °FClear.6 mph71%30.04 "Hg4 mi
5:00 AM43 °FClear.6 mph76%30.04 "Hg4 mi
4:30 AM43 °FClear.3 mph76%30.04 "Hg4 mi
4:00 AM41 °FClear.6 mph81%30.04 "Hg4 mi
3:30 AM41 °FClear.6 mph81%30.04 "Hg4 mi
3:00 AM41 °FClear.6 mph81%30.04 "Hg4 mi
2:30 AM41 °FClear.3 mph81%30.01 "Hg4 mi
2:00 AM41 °FClear.3 mph87%30.01 "Hg4 mi
1:30 AM41 °FClear.6 mph87%30.01 "Hg4 mi
1:00 AM41 °FClear.3 mph87%30.01 "Hg4 mi
12:30 AM39 °FClear.3 mph93%30.01 "Hg4 mi
12:00 AM41 °FClear.3 mph87%29.98 "Hg4 mi
11:30 PM
Sun, May 24
41 °FClear.3 mph87%29.98 "Hg4 mi
11:00 PM41 °FClear.3 mph87%29.98 "Hg4 mi
10:30 PM43 °FClear.1 mph81%29.98 "Hg4 mi
10:00 PM43 °FClear.3 mph81%29.98 "Hg4 mi
9:30 PM45 °FClear.3 mph76%29.98 "Hg4 mi
9:00 PM48 °FClear.3 mph66%29.98 "Hg4 mi
8:30 PM48 °FClear.6 mph66%29.98 "Hg4 mi
8:00 PM50 °FScattered clouds.8 mph62%29.98 "Hg4 mi
7:30 PM50 °FScattered clouds.8 mph62%29.95 "Hg4 mi
7:00 PM50 °FScattered clouds.8 mph62%29.95 "Hg4 mi
6:30 PM52 °FScattered clouds.10 mph58%29.95 "Hg4 mi
6:00 PM52 °FScattered clouds.10 mph58%29.95 "Hg4 mi
5:30 PM50 °FScattered clouds.8 mph62%29.95 "Hg4 mi
5:00 PM52 °FScattered clouds.10 mph58%29.95 "Hg4 mi
4:30 PM52 °FScattered clouds.13 mph58%29.95 "Hg4 mi
4:00 PM54 °FScattered clouds.13 mph58%29.95 "Hg4 mi
3:30 PM52 °FScattered clouds.15 mph58%29.92 "Hg4 mi
3:00 PM52 °FScattered clouds.13 mph58%29.92 "Hg4 mi
2:30 PM52 °FScattered clouds.15 mph58%29.92 "Hg4 mi
2:00 PM54 °FScattered clouds.15 mph54%29.89 "Hg4 mi
1:30 PM55 °FScattered clouds.15 mph51%29.89 "Hg4 mi
1:00 PM54 °FClear.20 mph51%29.89 "Hg4 mi
12:30 PM54 °FClear.13 mph51%29.89 "Hg4 mi
12:00 PM54 °FClear.15 mph47%29.86 "Hg4 mi
Weather by CustomWeather, © 2015

See weather overviewHow to use our weather pages